Vorticity
4 4 4 4 4 2 5 2 2 2 4 5 6 5 6 7 6 4 4 4 4 5 6 4 3 2 3 3 3 3 3 3 4 4 3 3 4 4 3 3 4 4 4
8 5 4 5 4 4 3 3 4 4 4 5 6 6 3 1 1 3 4 5 6 4 5 5 4 5 5 5 5 5 5 5 5 5 5 4 4 4 4 3 3 4 4
11 4 3 3 2 3 3 6 6 6 5 5 3 2 5 5 4 4 6 6 7 8 8 8 7 6 5 5 5 5 5 4 4 4 3 4 5 4 4 4 4 4 4
10 5 4 4 7 6 4 4 4 5 4 5 6 7 6 5 6 7 8 9 7 5 4 4 5 5 5 5 5 5 5 5 3 4 4 5 7 6 4 4 3 3 2
9 4 5 3 -0 4 2 4 5 4 4 6 6 5 6 8 10 10 5 3 4 4 4 5 5 5 5 5 5 6 6 6 5 5 5 5 3 2 2 4 5 5 6
9 4 2 4 4 4 4 5 4 4 7 5 5 7 8 7 3 3 5 4 4 5 5 5 5 4 4 4 5 5 5 6 6 6 6 4 -0 -1 -3 4 7 2 -1
8 6 4 4 5 5 5 4 4 7 5 6 7 7 6 5 5 4 5 5 5 5 4 4 4 4 5 5 6 6 7 7 6 6 6 5 7 9 6 -1 5 8 5
8 5 5 5 5 5 5 4 6 5 6 7 7 6 5 5 5 5 5 5 4 4 4 5 5 6 7 8 9 10 10 9 9 7 8 10 10 10 11 10 8 7 13
6 5 6 6 5 5 4 6 6 6 7 7 6 5 5 5 5 5 5 4 5 5 6 6 8 9 10 11 11 10 9 9 9 9 7 10 10 11 11 12 13 13 11
6 6 6 5 5 4 5 5 6 7 7 6 6 5 5 5 5 5 5 5 7 8 9 10 10 11 11 10 9 8 7 7 8 6 10 10 8 7 7 9 9 9 11
6 5 5 5 5 4 5 6 6 7 6 6 5 5 5 5 6 7 9 10 11 12 11 11 10 10 9 7 7 9 9 10 9 11 11 8 6 9 10 8 8 11 12
7 5 5 5 4 5 6 7 7 7 6 6 5 5 5 6 7 9 9 9 9 9 9 9 10 8 7 9 7 5 8 7 8 8 6 6 8 7 8 9 7 7 9
7 6 5 4 4 5 6 7 7 6 6 5 5 5 6 7 9 9 10 9 8 8 9 8 8 7 6 3 6 7 9 12 11 10 9 9 8 8 7 6 5 5 7
6 5 4 4 4 5 6 6 6 6 5 5 5 6 7 8 8 8 7 6 7 7 6 5 5 4 5 6 9 10 12 8 10 9 9 9 8 6 7 5 4 5 7
7 6 4 4 4 6 6 6 6 5 5 5 5 6 7 7 6 5 6 6 6 5 5 5 5 6 7 11 12 10 8 8 8 8 9 9 8 7 5 5 5 5 6
5 6 4 4 4 6 6 5 5 5 5 5 5 6 7 7 6 5 6 7 7 8 8 8 8 9 12 10 10 9 9 8 8 7 7 7 6 5 6 5 6 6 6
6 5 4 4 5 6 5 5 5 5 5 5 5 6 7 7 6 5 6 7 9 8 8 8 8 9 8 8 7 7 7 6 6 7 6 6 6 5 5 6 6 6 6
6 5 5 5 5 6 5 5 5 5 6 6 5 6 7 7 6 6 7 8 7 7 7 7 7 7 7 6 6 6 7 7 6 6 7 7 6 6 6 6 6 6 6
5 6 5 5 6 5 5 5 5 5 7 6 5 5 7 8 7 9 9 9 7 7 7 7 7 6 7 7 7 7 8 7 7 7 7 7 7 7 6 6 6 7 7
4 5 5 5 5 5 4 5 5 6 7 6 6 6 8 8 7 9 10 6 6 7 7 6 6 6 7 6 6 6 7 7 7 6 7 6 7 7 8 7 6 7 8
5 5 5 5 5 5 5 4 6 7 7 6 6 7 9 7 6 7 6 6 6 7 7 7 6 7 6 6 6 5 6 6 6 7 6 6 6 7 6 6 7 6 7
5 4 4 5 4 5 5 5 6 7 7 6 6 8 8 6 6 8 8 7 6 7 7 6 7 7 7 6 5 6 7 7 8 8 8 6 7 7 8 7 8 7 8
4 5 4 5 5 5 5 5 7 7 7 7 7 8 7 5 5 6 9 8 7 7 6 6 7 7 7 7 7 6 8 7 7 8 7 7 6 7 7 8 8 8 8
4 5 4 5 5 5 5 5 7 7 7 6 7 8 6 5 6 6 10 10 9 7 6 7 7 8 8 8 8 8 8 7 7 8 7 6 7 8 8 8 8 7 7
5 4 4 5 5 5 4 6 8 6 8 7 8 6 5 5 9 11 11 9 6 5 5 8 8 8 7 7 8 8 7 7 7 7 7 7 6 6 9 10 9 8 7
4 4 5 5 6 4 5 7 7 8 7 8 7 6 6 7 9 8 6 5 5 7 9 8 7 7 7 7 8 8 8 8 8 7 6 7 7 9 8 8 9 8 8
Height
3169 3170 3171 3172 3173 3173 3174 3173 3174 3175 3175 3175 3175 3175 3175 3175 3175 3175 3175 3174 3174 3174 3173 3172 3172 3172 3172 3172 3171 3171 3170 3170 3169 3168 3168 3168 3167 3167 3166 3165 3165 3165 3164
3168 3169 3170 3171 3173 3174 3174 3174 3174 3175 3175 3175 3175 3175 3175 3175 3175 3174 3174 3173 3173 3172 3172 3171 3171 3171 3170 3170 3170 3170 3169 3169 3168 3168 3167 3166 3166 3166 3165 3165 3164 3163 3163
3167 3168 3169 3171 3172 3173 3173 3173 3174 3174 3175 3175 3174 3174 3174 3174 3173 3173 3173 3172 3171 3171 3170 3170 3169 3169 3169 3169 3168 3168 3168 3167 3166 3165 3165 3165 3165 3164 3164 3163 3163 3162 3162
3165 3167 3169 3170 3171 3172 3173 3173 3173 3174 3174 3174 3174 3174 3173 3172 3172 3172 3171 3171 3170 3170 3169 3169 3168 3168 3168 3167 3166 3166 3166 3165 3165 3164 3163 3163 3161 3162 3162 3162 3162 3161 3161
3164 3166 3168 3169 3171 3171 3172 3172 3173 3173 3173 3173 3173 3172 3172 3171 3171 3170 3170 3170 3169 3169 3168 3168 3168 3167 3166 3165 3165 3164 3164 3163 3162 3161 3161 3161 3160 3160 3160 3160 3160 3160 3158
3163 3165 3167 3168 3170 3170 3171 3172 3172 3172 3172 3172 3172 3171 3171 3170 3170 3170 3169 3169 3169 3168 3168 3167 3167 3166 3164 3164 3163 3162 3162 3161 3160 3159 3158 3159 3158 3158 3158 3157 3157 3157 3156
3161 3164 3166 3167 3169 3169 3170 3171 3171 3171 3171 3171 3171 3170 3170 3170 3169 3169 3168 3168 3168 3167 3166 3166 3165 3164 3163 3162 3161 3160 3159 3158 3157 3156 3155 3154 3154 3155 3154 3154 3154 3153 3153
3160 3162 3164 3166 3168 3169 3169 3170 3170 3170 3170 3170 3170 3169 3169 3169 3168 3168 3167 3167 3166 3166 3165 3163 3162 3161 3160 3159 3158 3157 3156 3155 3154 3152 3151 3150 3151 3151 3150 3150 3149 3149 3149
3159 3161 3163 3165 3167 3168 3168 3169 3169 3169 3169 3169 3169 3168 3168 3168 3167 3167 3166 3165 3164 3163 3162 3160 3159 3158 3157 3156 3155 3154 3153 3152 3151 3150 3148 3149 3148 3147 3147 3146 3146 3145 3145
3157 3159 3161 3163 3165 3166 3167 3168 3168 3168 3168 3168 3167 3167 3166 3166 3166 3165 3164 3162 3161 3160 3158 3157 3155 3154 3153 3152 3151 3151 3150 3149 3148 3145 3147 3146 3145 3144 3143 3143 3142 3142 3141
3156 3158 3160 3162 3164 3165 3166 3167 3166 3166 3166 3166 3166 3165 3165 3164 3164 3163 3161 3159 3157 3156 3155 3154 3152 3151 3150 3150 3149 3148 3147 3146 3144 3143 3144 3143 3143 3142 3141 3140 3139 3139 3138
3155 3156 3158 3160 3162 3163 3164 3165 3165 3165 3165 3165 3164 3164 3163 3162 3161 3160 3159 3157 3155 3154 3152 3151 3150 3149 3148 3148 3147 3146 3144 3142 3142 3142 3141 3141 3140 3140 3139 3138 3138 3137 3136
3153 3155 3157 3159 3160 3162 3163 3163 3164 3164 3164 3163 3162 3162 3161 3160 3159 3158 3157 3155 3153 3152 3150 3149 3149 3148 3147 3146 3144 3143 3141 3141 3140 3139 3139 3138 3138 3137 3137 3136 3136 3135 3134
3150 3153 3155 3157 3158 3160 3161 3161 3162 3162 3162 3161 3161 3160 3159 3158 3157 3156 3155 3153 3151 3150 3149 3148 3147 3146 3145 3144 3142 3140 3140 3138 3138 3137 3137 3136 3136 3135 3135 3134 3133 3132 3131
3148 3151 3153 3155 3156 3158 3159 3159 3160 3160 3160 3159 3158 3158 3157 3156 3154 3154 3153 3151 3149 3148 3147 3146 3145 3144 3143 3142 3140 3138 3137 3136 3136 3135 3135 3134 3134 3134 3133 3132 3131 3130 3128
3145 3149 3151 3153 3154 3156 3157 3157 3158 3157 3158 3157 3156 3156 3155 3154 3152 3151 3150 3149 3147 3146 3145 3144 3142 3141 3141 3139 3138 3136 3135 3134 3134 3133 3133 3133 3132 3131 3131 3129 3129 3127 3126
3142 3146 3149 3151 3152 3154 3155 3155 3155 3155 3156 3155 3154 3153 3152 3151 3150 3149 3148 3146 3145 3144 3143 3142 3140 3140 3139 3137 3136 3135 3134 3133 3132 3132 3131 3130 3129 3128 3128 3127 3126 3125 3123
3139 3143 3147 3149 3150 3152 3152 3153 3153 3153 3154 3153 3152 3151 3150 3149 3148 3147 3146 3144 3143 3142 3142 3140 3139 3138 3137 3136 3134 3133 3133 3131 3130 3129 3128 3127 3126 3125 3124 3123 3122 3121 3119
3136 3141 3144 3146 3148 3149 3150 3151 3151 3150 3152 3150 3149 3148 3147 3146 3146 3145 3144 3142 3141 3140 3140 3138 3137 3135 3135 3133 3132 3131 3130 3129 3127 3126 3124 3123 3122 3121 3120 3119 3118 3117 3116
3133 3138 3141 3143 3144 3147 3147 3148 3148 3148 3149 3148 3146 3145 3145 3144 3143 3143 3141 3140 3138 3138 3138 3136 3134 3132 3131 3130 3128 3127 3126 3125 3124 3122 3120 3119 3118 3116 3115 3114 3114 3112 3111
3131 3135 3138 3140 3141 3143 3145 3145 3146 3146 3145 3144 3143 3143 3142 3141 3141 3140 3138 3136 3135 3135 3135 3133 3131 3130 3128 3126 3125 3123 3122 3121 3120 3118 3116 3114 3114 3112 3111 3109 3108 3107 3106
3128 3132 3135 3137 3138 3140 3143 3141 3143 3142 3142 3141 3140 3140 3139 3138 3138 3137 3135 3133 3132 3132 3131 3129 3127 3126 3124 3122 3120 3118 3117 3117 3116 3114 3112 3110 3109 3108 3106 3104 3103 3101 3100
3125 3129 3131 3134 3135 3137 3138 3138 3139 3138 3138 3138 3137 3137 3136 3135 3135 3133 3131 3129 3128 3128 3127 3125 3123 3121 3120 3118 3116 3114 3112 3110 3109 3109 3108 3106 3104 3103 3101 3100 3097 3096 3094
3122 3126 3128 3130 3132 3134 3135 3135 3135 3134 3134 3134 3133 3133 3132 3132 3131 3130 3127 3125 3124 3124 3122 3120 3118 3117 3115 3114 3112 3109 3107 3105 3103 3102 3102 3100 3099 3099 3096 3094 3092 3090 3088
3119 3122 3125 3127 3129 3130 3131 3132 3132 3130 3130 3130 3129 3129 3129 3128 3127 3125 3123 3121 3120 3119 3117 3115 3113 3112 3110 3108 3106 3105 3103 3100 3097 3095 3095 3094 3091 3089 3090 3088 3085 3083 3081
3115 3118 3122 3124 3125 3127 3127 3128 3127 3125 3126 3126 3125 3125 3125 3124 3123 3120 3118 3116 3116 3115 3112 3111 3108 3107 3105 3104 3101 3099 3097 3095 3093 3089 3086 3086 3083 3084 3080 3079 3078 3076 3073